User: anonymous   Login
Location: Unspecified
(0.0000°N, 0.0000°E)
Time: 06:09:58
(UTC+00:00)
Language:

Cosmos 1680 - Orbit

View from above orbital plane
View from above orbital plane
View from above satellite
View from above satellite

Ground track
Ground track

The orbit data is extracted from the following two-line orbital elements,

1 16011U 85079A   18199.50369631 -.00000014 +00000-0 +43536-5 0  9991
2 16011 074.0516 204.1713 0014917 008.6585 351.4821 14.33188920717633
Epoch (UTC): 18 July 2018 12:05:19
Eccentricity: 0.0014917
inclination: 74.0516°
perigee height: 770 km
apogee height: 792 km
right ascension of ascending node: 204.1713°
argument of perigee: 8.6585°
revolutions per day: 14.33188920
mean anomaly at epoch: 351.4821°
orbit number at epoch: 71763

The dashed part of the orbit path shows where the satellite is in the earth's shadow,  

DLR